SL-14 DEB, 45336

Orbit data source: Space-Track

SL-14 DEB, 45336 is space debris in LEO originally from a launch on Thu, 15 Aug 1991 UTC launched from the Plesetsk Missile And Space Complex (PKMTR). Debris objects in space refer to the collection of defunct objects orbiting the Earth. Examples of debris include non-operational satellites, rocket bodies, and fragments generated from explosions, collisions, or faulty payload assembly.

Loading next visibility...
Identifier
45336, 1991-056CA
Orbit
LEO
Country
Flag of CISCIS
Related business
Manufacturer
Unknown
Mission
Spacecraft
Bus & Motor
Unknown
Mass
Unknown
Launch date (UTC)
1991-08-15 (34 years ago)
Launch vehicle
Unknown
Launch site
Plesetsk Missile And Space Complex (PKMTR)
Object type
Payload
Rocket body
Debris
Shape & HBR
Unknown shape, 0.1 m
Radar Cross Section
Small (<0.1 m²)

Expand to show TLE details & history
Last TLE update: 3 days ago

TLE from 3 days ago
0 SL-14 DEB
1 45336U 91056CA  25299.43860118  .00001508  00000-0  31360-2 0  9999
2 45336  82.5751 280.0287 0049563 197.1804 162.7652 13.30924700274680
Epoch: 2025-10-26T10:31Z
TLE epoch observation values (Epoch: 2025-10-26T10:31:35.141Z)
Latitude
0.00004°
Longitude
87.07749°
Altitude
1,181.732 km
Speed
7.245 km/s
True Right ascension
18h 40m 06s
True Declination
0° 00' 00"
Sunlit
Object was in daylight at epoch
Visualization orbit readout
Latitude
Unknown
Longitude
Unknown
Altitude
Unknown
Speed
Unknown
Apparent Right ascension
Unknown
Apparent Declination
Unknown
Sunlit
N/A
Visualization observer readout
Local Sidereal Time
05:28:15
Azimuth
Unknown
Elevation
Unknown
Doppler factor
Unknown
Orbital elements
Apogee altitude
1,177.766 km
Perigee altitude
1,103.237 km
Semi-major axis
7,518.639 km
Eccentricity
0.00496
Inclination
82.5751°
RAAN
280.0287°
Arg. of periapsis
197.1804°
True anomaly
162.93249°
Mean anomaly
162.7652°
Eccentric anomaly
162.84894°
Mean motion
3.32916 °/min
Orbital period
108.14 mins
BSTAR
0.003136
Loading maneuver chart data...
Computing Atmospheric mass density...
Loading historical data...
Loading historical data...
Loading historical data...
Loading historical data...
Loading historical data...
Loading historical data...
Loading historical data...

Documentation

Showing up to 5 results
|